sat.trackr.live / text

‹ back to catalog

STARLINK-34225

NORAD 64414 · 2025-129C

PAYLOAD ACTIVE UNKNOWN

§ Identity

Operator
Country
US
Launch date
2025-06-17
Launch site
AFWTR
Launch vehicle
Mass (kg)
RCS (m²)

Purposes: comms

External: N2YO · Heavens-Above · Gunter

§ Orbital elements

Epoch: 2026-09-20T14:07:45.813216Z

Period
94.14 min
Inclination
70.0020°
Eccentricity
0.0003528
Mean motion
15.29591092 rev/d
Perigee alt
474.6 km
Apogee alt
479.5 km
Semi-major
6,855.2 km
B*
3.6842e-4
RAAN
300.5549°
Arg perigee
273.7083°
Mean anomaly
86.3689°
Rev number
7,054

§ Raw data

STARLINK-342251 64414U 25129C   26263.58872469  .00010482  00000+0  36842-3 0  99962 64414  70.0020 300.5549 0003528 273.7083  86.3689 15.29591092 70543

JSON: /api/v1/satellites/64414 · /tle

For live sub-satellite position, see the globe view (requires WebGL).

§ Visibility from observer

Set your observer location to see the next 7 days of passes ≥ 10°. The values pass through the URL so the page stays shareable.

No JS? Fill the form by hand. The geolocation button needs JavaScript.